User: anonymous   Login
Location: Lawrence
(38.9720°N, 95.2350°W)
Time: 06:43:03
(UTC-05:00)
Language:

ALOS - Orbit

View from above orbital plane
View from above orbital plane
View from above satellite
View from above satellite

Ground track
Ground track

The orbit data is extracted from the following two-line orbital elements,

1 28931U 06002A   18111.23723359  .00000137  00000-0  35714-4 0  9992
2 28931  97.8229 127.7963 0002611  70.0308 290.1170 14.62479918652481
Epoch (UTC): 21 April 2018 05:41:36
Eccentricity: 0.0002611
inclination: 97.8229°
perigee height: 683 km
apogee height: 687 km
right ascension of ascending node: 127.7963°
argument of perigee: 70.0308°
revolutions per day: 14.62479918
mean anomaly at epoch: 290.1170°
orbit number at epoch: 65248

The dashed part of the orbit path shows where the satellite is in the earth's shadow,  

DLR